Flag for Germany Weather past 2 weeks in Peine, Lower Saxony, Germany

Now
41 °F

Passing clouds.


Feels Like: 36 °F
Forecast: 36 / 52 °F
Wind: 8 mph from West

Location: Celle Airport

Current Time: Mar 6, 2015 at 5:56:47 AM

Latest Report: Mar 6, 2015 at 5:20 AM


Visibility: N/A

Pressure: 30.54 "Hg

Humidity: 81%

Dew point: 36 °F

Location of PeineLocation

Historic Weather in Peine — Graph

°F

Peine temperature yesterday

Maximum temperature yesterday: 46 °F (at 3:20 PM)
Minimum temperature yesterday: 36 °F (at 4:20 AM)
Average temperature yesterday: 41 °F

Past Weeks' High & Low Weather Summary

 TemperatureHumidityPressure
High48 °F (Feb 26, 3:20 PM)100% (Feb 19, 4:20 AM)30.57 "Hg (Feb 19, 4:20 AM)
Low25 °F (Feb 19, 4:20 AM)40% (Feb 28, 4:20 PM)29.30 "Hg (Feb 21, 9:20 AM)
Average39 °F80%29.87 "Hg
* Reported Feb 19 4:20 AM — Mar 6 4:20 AM, Peine, Weather by CustomWeather, © 2015

Note: Actual official high and low records may vary slightly from our data, if they occured in-between our weather recording intervals... More about our weather records

Advertising

Peine weather history for previous 24 hours

 ConditionsComfort  
Time TempWeatherWind HumidityBarometerVisibility
4:20 AM
Fri, Mar 6
41 °FPassing clouds.7 mph81%30.54 "HgN/A
3:20 AM41 °FPassing clouds.7 mph81%30.54 "HgN/A
2:20 AM41 °FPassing clouds.3 mph81%30.57 "HgN/A
1:20 AM39 °FPassing clouds.5 mph87%30.57 "HgN/A
12:20 AM41 °FPassing clouds.5 mph81%30.57 "HgN/A
11:20 PM
Thu, Mar 5
41 °FPassing clouds.6 mph81%30.57 "HgN/A
10:20 PM41 °FPassing clouds.3 mph81%30.57 "HgN/A
9:20 PM41 °FPassing clouds.3 mph81%30.57 "HgN/A
8:20 PM41 °FPartly cloudy.6 mph81%30.57 "HgN/A
7:20 PM41 °FPartly cloudy.6 mph81%30.57 "HgN/A
6:20 PM41 °FPassing clouds.3 mph76%30.57 "HgN/A
5:20 PM45 °FBroken clouds.6 mph66%30.54 "HgN/A
4:20 PM45 °FBroken clouds.9 mph61%30.54 "HgN/A
3:20 PM46 °FBroken clouds.9 mph62%30.54 "HgN/A
2:20 PM45 °FBroken clouds.8 mph66%30.54 "HgN/A
1:20 PM45 °FBroken clouds.8 mph66%30.54 "HgN/A
12:20 PM45 °FBroken clouds.10 mph71%30.54 "HgN/A
11:20 AM41 °FPartly sunny.8 mph81%30.54 "HgN/A
10:20 AM41 °FPartly sunny.6 mph87%30.54 "HgN/A
9:20 AM39 °FPartly sunny.8 mph93%30.54 "Hg6 mi
8:20 AM39 °FPartly sunny.7 mph87%30.51 "Hg5 mi
7:20 AM37 °FBroken clouds.7 mph93%30.51 "Hg6 mi
6:20 AM36 °FPassing clouds.6 mph93%30.48 "HgN/A
5:20 AM36 °FPassing clouds.7 mph93%30.48 "HgN/A
Weather by CustomWeather, © 2015

See weather overviewHow to use our weather pages